Harrisburg, IL

5:04 PM CDT on May 26, 2017 (GMT -0500)
Harrisburg-Raleigh

Weather History for KHSB - December, 2012

Change the Weather History Date:

Monday, December 10, 2012

  Actual Average (KMWA) Record (KMWA)
Temperature  
Mean Temperature 38 °F -  
Max Temperature 44 °F 44 °F 70 °F (1971)
Min Temperature 32 °F 25 °F 4 °F (1977)
Degree Days  
Heating Degree Days 27    
Moisture  
Dew Point 29 °F    
Average Humidity 81    
Maximum Humidity 93    
Minimum Humidity 69    
Precipitation  
Precipitation 0.00 in - - ()
Sea Level Pressure  
Sea Level Pressure 29.93 in    
Wind  
Wind Speed 10 mph (NW)    
Max Wind Speed 17 mph    
Max Gust Speed 24 mph    
Visibility 10 miles    
Events      
Averages and records for this station are not official NWS values.
T = Trace of Precipitation, MM = Missing Value Source: NWS Daily Summary

Daily Weather History Graph

Daily Weather History Graph

Search for Another Location

Airport or City:

Trip Planner

Search our weather history database for the weather conditions in past years. The results will help you decide how hot, cold, wet, or windy it might be!

Date:

Astronomy

Dec. 10, 2012 Rise Set
Actual Time 6:59 AM CST 4:35 PM CST
Civil Twilight 6:29 AM CST 5:04 PM CST
Nautical Twilight 5:57 AM CST 5:37 PM CST
Astronomical Twilight 5:25 AM CST 6:09 PM CST
Moon 3:44 AM CST (12/10) 2:22 PM CST (12/10)
Length of Visible Light 10h 34m
Length of Day
9h 36m
Waning Crescent, 10% of the Moon is Illuminated
Dec 10
Waning Crescent
Dec 13
New
Dec 19
First Quarter
Dec 28
Full
Jan 4
Last Quarter

Hourly Weather History & Observations

Time (CST) Temp. Windchill Dew Point Humidity Pressure Visibility Wind Dir Wind Speed Gust Speed Precip Events Conditions
12:15 AM - - - N/A% 29.84 in 10.0 mi NW 8.1 mph 16.1 mph N/A   Overcast
12:35 AM 44.6 °F 39.7 °F 41.0 °F 87% 29.84 in 10.0 mi NW 9.2 mph - N/A   Overcast
12:55 AM 44.6 °F 40.7 °F 41.0 °F 87% 29.85 in 10.0 mi NNW 6.9 mph - N/A   Overcast
1:15 AM 42.8 °F 39.3 °F 41.0 °F 93% 29.84 in 10.0 mi North 5.8 mph - N/A   Overcast
1:35 AM 42.8 °F 39.3 °F 41.0 °F 93% 29.85 in 10.0 mi NNW 5.8 mph - N/A   Scattered Clouds
1:55 AM 42.8 °F 39.3 °F 39.2 °F 87% 29.85 in 10.0 mi NW 5.8 mph - N/A   Scattered Clouds
2:15 AM 42.8 °F 39.3 °F 39.2 °F 87% 29.85 in 10.0 mi NW 5.8 mph - N/A   Mostly Cloudy
2:35 AM 42.8 °F 38.6 °F 37.4 °F 81% 29.84 in 10.0 mi NNW 6.9 mph - N/A   Mostly Cloudy
2:55 AM 42.8 °F 38.6 °F 37.4 °F 81% 29.84 in 10.0 mi NNW 6.9 mph - N/A   Mostly Cloudy
3:15 AM 42.8 °F 40.1 °F 37.4 °F 81% 29.83 in 10.0 mi NNW 4.6 mph - N/A   Overcast
3:35 AM 42.8 °F 39.3 °F 37.4 °F 81% 29.83 in 10.0 mi NW 5.8 mph - N/A   Overcast
3:55 AM 41.0 °F 32.8 °F 35.6 °F 81% 29.82 in 10.0 mi WNW 16.1 mph - N/A   Overcast
4:15 AM 39.2 °F 31.2 °F 33.8 °F 81% 29.81 in 10.0 mi NW 13.8 mph 20.7 mph N/A   Overcast
4:35 AM - - - N/A% 29.83 in 10.0 mi NW 11.5 mph 17.3 mph N/A   Mostly Cloudy
4:55 AM 37.4 °F 29.3 °F 33.8 °F 87% 29.83 in 10.0 mi NW 12.7 mph - N/A   Scattered Clouds
5:15 AM 37.4 °F 29.8 °F 33.8 °F 87% 29.83 in 10.0 mi WNW 11.5 mph 16.1 mph N/A   Scattered Clouds
5:35 AM 37.4 °F 28.9 °F 33.8 °F 87% 29.84 in 10.0 mi NW 13.8 mph 20.7 mph N/A   Overcast
5:55 AM 35.6 °F 25.9 °F 32.0 °F 87% 29.85 in 10.0 mi WNW 16.1 mph 20.7 mph N/A   Overcast
6:15 AM 33.8 °F 24.3 °F 32.0 °F 93% 29.85 in 10.0 mi WNW 13.8 mph - N/A   Overcast
6:35 AM - - - N/A% 29.86 in 10.0 mi WNW 13.8 mph - N/A   Overcast
6:55 AM 33.8 °F 24.8 °F 30.2 °F 87% 29.87 in 10.0 mi WNW 12.7 mph 19.6 mph N/A   Overcast
7:15 AM 32.0 °F 22.5 °F 30.2 °F 93% 29.87 in 10.0 mi WNW 12.7 mph 17.3 mph N/A   Overcast
7:35 AM 32.0 °F 21.6 °F 30.2 °F 93% 29.88 in 10.0 mi NW 15.0 mph 18.4 mph N/A   Overcast
7:55 AM 32.0 °F 21.6 °F 28.4 °F 87% 29.90 in 10.0 mi NW 15.0 mph 21.9 mph N/A   Overcast
8:15 AM 32.0 °F 22.1 °F 28.4 °F 87% 29.90 in 10.0 mi NW 13.8 mph - N/A   Overcast
8:35 AM 32.0 °F 22.1 °F 28.4 °F 87% 29.91 in 10.0 mi WNW 13.8 mph 18.4 mph N/A   Overcast
8:55 AM 32.0 °F 22.5 °F 28.4 °F 87% 29.91 in 10.0 mi WNW 12.7 mph - N/A   Overcast
9:15 AM 32.0 °F 21.2 °F 28.4 °F 87% 29.91 in 10.0 mi WNW 16.1 mph 24.2 mph N/A   Overcast
9:35 AM 32.0 °F 20.8 °F 28.4 °F 87% 29.92 in 10.0 mi WNW 17.3 mph - N/A   Overcast
9:55 AM 32.0 °F 22.5 °F 28.4 °F 87% 29.92 in 10.0 mi NW 12.7 mph 21.9 mph N/A   Overcast
10:15 AM 32.0 °F 22.1 °F 26.6 °F 80% 29.93 in 10.0 mi NW 13.8 mph 18.4 mph N/A   Overcast
10:35 AM 32.0 °F 22.1 °F 26.6 °F 80% 29.92 in 10.0 mi NW 13.8 mph 21.9 mph N/A   Overcast
10:55 AM 32.0 °F 21.6 °F 26.6 °F 80% 29.92 in 10.0 mi NW 15.0 mph 20.7 mph N/A   Overcast
11:15 AM 32.0 °F 23.0 °F 26.6 °F 80% 29.92 in 10.0 mi NW 11.5 mph 23.0 mph N/A   Overcast
11:35 AM 32.0 °F 22.5 °F 28.4 °F 87% 29.92 in 10.0 mi NW 12.7 mph 18.4 mph N/A   Overcast
11:55 AM 32.0 °F 21.6 °F 26.6 °F 80% 29.92 in 10.0 mi NW 15.0 mph 21.9 mph N/A   Overcast
12:15 PM 32.0 °F 21.6 °F 26.6 °F 80% 29.90 in 10.0 mi NW 15.0 mph 18.4 mph N/A   Overcast
12:35 PM 32.0 °F 22.1 °F 26.6 °F 80% 29.90 in 10.0 mi NW 13.8 mph 18.4 mph N/A   Overcast
12:55 PM 32.0 °F 23.0 °F 26.6 °F 80% 29.90 in 10.0 mi NW 11.5 mph 17.3 mph N/A   Overcast
1:15 PM 32.0 °F 24.2 °F 26.6 °F 80% 29.90 in 10.0 mi NW 9.2 mph - N/A   Overcast
1:35 PM 32.0 °F 23.6 °F 26.6 °F 80% 29.89 in 10.0 mi NW 10.4 mph - N/A   Overcast
1:55 PM 32.0 °F 23.6 °F 26.6 °F 80% 29.89 in 10.0 mi NW 10.4 mph 17.3 mph N/A   Overcast
2:15 PM - - - N/A% 29.90 in 10.0 mi NW 11.5 mph - N/A   Overcast
2:35 PM 32.0 °F 23.0 °F 26.6 °F 80% 29.91 in 10.0 mi WNW 11.5 mph 16.1 mph N/A   Overcast
2:55 PM 32.0 °F 21.2 °F 26.6 °F 80% 29.92 in 10.0 mi WNW 16.1 mph 19.6 mph N/A   Overcast
3:15 PM 32.0 °F 23.6 °F 26.6 °F 80% 29.93 in 10.0 mi NW 10.4 mph - N/A   Overcast
3:35 PM 32.0 °F 23.6 °F 26.6 °F 80% 29.93 in 10.0 mi NW 10.4 mph - N/A   Overcast
3:55 PM 32.0 °F 24.2 °F 26.6 °F 80% 29.93 in 10.0 mi NW 9.2 mph - N/A   Overcast
4:15 PM 32.0 °F 22.5 °F 26.6 °F 80% 29.94 in 10.0 mi NW 12.7 mph - N/A   Overcast
4:35 PM 32.0 °F 22.5 °F 26.6 °F 80% 29.96 in 10.0 mi NW 12.7 mph 18.4 mph N/A   Overcast
4:55 PM 32.0 °F 24.2 °F 26.6 °F 80% 29.97 in 10.0 mi NW 9.2 mph - N/A   Overcast
5:15 PM 32.0 °F 21.6 °F 26.6 °F 80% 29.98 in 10.0 mi WNW 15.0 mph - N/A   Overcast
5:35 PM 32.0 °F 23.0 °F 26.6 °F 80% 29.98 in 10.0 mi WNW 11.5 mph - N/A   Overcast
5:55 PM 32.0 °F 22.5 °F 26.6 °F 80% 29.99 in 10.0 mi WNW 12.7 mph 16.1 mph N/A   Overcast
6:15 PM 32.0 °F 22.5 °F 26.6 °F 80% 30.00 in 10.0 mi NW 12.7 mph - N/A   Overcast
6:35 PM 32.0 °F 23.0 °F 26.6 °F 80% 30.01 in 10.0 mi WNW 11.5 mph 18.4 mph N/A   Overcast
6:55 PM 32.0 °F 23.0 °F 26.6 °F 80% 30.02 in 10.0 mi WNW 11.5 mph - N/A   Overcast
7:15 PM 32.0 °F 24.2 °F 26.6 °F 80% 30.02 in 10.0 mi NW 9.2 mph - N/A   Overcast
7:35 PM 32.0 °F 21.2 °F 24.8 °F 75% 30.03 in 10.0 mi NW 16.1 mph - N/A   Overcast
7:55 PM 32.0 °F 23.0 °F 23.0 °F 69% 30.03 in 10.0 mi NW 11.5 mph - N/A   Overcast
8:15 PM 32.0 °F 24.2 °F 23.0 °F 69% 30.04 in 10.0 mi NW 9.2 mph - N/A   Overcast
8:35 PM 32.0 °F 22.5 °F 23.0 °F 69% 30.04 in 10.0 mi NNW 12.7 mph 18.4 mph N/A   Overcast
8:55 PM 32.0 °F 24.8 °F 23.0 °F 69% 30.04 in 10.0 mi NNW 8.1 mph - N/A   Overcast
9:15 PM 32.0 °F 23.0 °F 23.0 °F 69% 30.04 in 10.0 mi NNW 11.5 mph 18.4 mph N/A   Overcast
9:35 PM 32.0 °F 24.8 °F 23.0 °F 69% 30.04 in 10.0 mi NW 8.1 mph - N/A   Overcast
9:55 PM 32.0 °F 24.2 °F 23.0 °F 69% 30.05 in 10.0 mi North 9.2 mph - N/A   Overcast
10:15 PM 32.0 °F 25.6 °F 23.0 °F 69% 30.06 in 10.0 mi NNW 6.9 mph - N/A   Overcast
10:35 PM 32.0 °F 25.6 °F 23.0 °F 69% 30.06 in 10.0 mi NW 6.9 mph - N/A   Overcast
10:55 PM 32.0 °F 24.8 °F 23.0 °F 69% 30.07 in 10.0 mi NNW 8.1 mph - N/A   Overcast
11:15 PM 32.0 °F 27.5 °F 23.0 °F 69% 30.08 in 10.0 mi NNW 4.6 mph - N/A   Overcast
11:35 PM 32.0 °F 26.4 °F 23.0 °F 69% 30.09 in 10.0 mi WNW 5.8 mph - N/A   Overcast
11:55 PM 32.0 °F 27.5 °F 23.0 °F 69% 30.08 in 10.0 mi NW 4.6 mph - N/A   Overcast